• In Netherlands
  • List of Countries
  • For 7 days
  • Water Temperature
  • Satellite Maps
  • Weather Map
  • Weather Widgets
  • user-avatar
    Login

    Hourly Weather Sunny Beach

    Today, 22 September, Friday

    Time Temperature Precipitation Wind Pressure Humidity
    00:00 +14°C° 0.3 mm 5 mps 734 mmHg 68%
    01:00 +13°C° 0.3 mm 5 mps 734 mmHg 70%
    02:00 +12°C° 0 mm 4 mps 734 mmHg 70%
    03:00 +12°C° 0.1 mm 4 mps 734 mmHg 71%
    04:00 +12°C° 0.1 mm 4 mps 734 mmHg 71%
    05:00 +11°C° 0.1 mm 4 mps 734 mmHg 72%
    06:00 +12°C° 0 mm 4 mps 735 mmHg 68%
    07:00 +13°C° 0 mm 4 mps 735 mmHg 64%
    08:00 +13°C° 0 mm 4 mps 735 mmHg 61%
    09:00 +15°C° 0 mm 4 mps 735 mmHg 54%
    10:00 +18°C° 0 mm 4 mps 735 mmHg 47%
    11:00 +20°C° 0 mm 3 mps 736 mmHg 40%
    12:00 +20°C° 0 mm 4 mps 736 mmHg 37%
    13:00 +21°C° 0 mm 4 mps 736 mmHg 34%
    14:00 +22°C° 0 mm 4 mps 736 mmHg 31%
    15:00 +21°C° 0 mm 4 mps 736 mmHg 32%
    16:00 +21°C° 0 mm 4 mps 736 mmHg 33%
    17:00 +20°C° 0 mm 4 mps 736 mmHg 35%
    18:00 +19°C° 0 mm 4 mps 736 mmHg 39%
    19:00 +18°C° 0 mm 4 mps 736 mmHg 43%
    20:00 +17°C° 0 mm 4 mps 737 mmHg 47%
    21:00 +15°C° 0 mm 4 mps 737 mmHg 50%
    22:00 +15°C° 0 mm 4 mps 737 mmHg 53%
    23:00 +14°C° 0 mm 4 mps 737 mmHg 55%

    Tomorrow, 23 September, Saturday

    Time Temperature Precipitation Wind Pressure Humidity
    00:00 +13°C° 0 mm 4 mps 738 mmHg 58%
    01:00 +12°C° 0 mm 3 mps 738 mmHg 62%
    02:00 +12°C° 0 mm 3 mps 738 mmHg 65%
    03:00 +11°C° 0 mm 3 mps 738 mmHg 66%
    04:00 +11°C° 0 mm 3 mps 738 mmHg 67%
    05:00 +11°C° 0 mm 3 mps 738 mmHg 68%
    06:00 +12°C° 0 mm 3 mps 738 mmHg 64%
    07:00 +13°C° 0 mm 3 mps 739 mmHg 59%
    08:00 +14°C° 0 mm 3 mps 739 mmHg 55%
    09:00 +17°C° 0 mm 3 mps 739 mmHg 50%
    10:00 +19°C° 0 mm 3 mps 739 mmHg 45%
    11:00 +21°C° 0 mm 3 mps 740 mmHg 39%
    12:00 +21°C° 0 mm 3 mps 739 mmHg 37%
    13:00 +22°C° 0 mm 3 mps 739 mmHg 34%
    14:00 +24°C° 0 mm 2 mps 739 mmHg 31%
    15:00 +24°C° 0 mm 2 mps 739 mmHg 33%
    16:00 +23°C° 0 mm 2 mps 739 mmHg 34%
    17:00 +23°C° 0 mm 2 mps 739 mmHg 35%
    18:00 +20°C° 0 mm 2 mps 739 mmHg 40%
    19:00 +18°C° 0 mm 2 mps 739 mmHg 44%
    20:00 +17°C° 0 mm 2 mps 739 mmHg 49%
    21:00 +16°C° 0 mm 2 mps 739 mmHg 50%
    22:00 +16°C° 0 mm 2 mps 740 mmHg 51%
    23:00 +15°C° 0 mm 2 mps 740 mmHg 53%

    Day after tomorrow, 24 September, Sunday

    Time Temperature Precipitation Wind Pressure Humidity
    00:00 +15°C° 0 mm 1 mps 739 mmHg 52%
    01:00 +15°C° 0 mm 1 mps 739 mmHg 52%
    02:00 +15°C° 0 mm 1 mps 739 mmHg 52%
    03:00 +14°C° 0 mm 1 mps 739 mmHg 53%
    04:00 +14°C° 0 mm 1 mps 739 mmHg 54%
    05:00 +14°C° 0 mm 1 mps 739 mmHg 55%
    06:00 +16°C° 0 mm 1 mps 739 mmHg 52%
    07:00 +18°C° 0 mm 1 mps 740 mmHg 48%
    08:00 +20°C° 0 mm 1 mps 740 mmHg 45%
    09:00 +22°C° 0 mm 1 mps 740 mmHg 40%
    10:00 +24°C° 0 mm 1 mps 740 mmHg 35%
    11:00 +26°C° 0 mm 1 mps 740 mmHg 30%
    12:00 +26°C° 0 mm 1 mps 740 mmHg 29%
    13:00 +27°C° 0 mm 2 mps 740 mmHg 28%
    14:00 +27°C° 0 mm 2 mps 740 mmHg 27%
    15:00 +26°C° 0 mm 3 mps 739 mmHg 29%
    16:00 +26°C° 0 mm 3 mps 739 mmHg 31%
    17:00 +25°C° 0 mm 4 mps 739 mmHg 34%
    18:00 +22°C° 0 mm 3 mps 739 mmHg 42%
    19:00 +20°C° 0 mm 3 mps 739 mmHg 50%
    20:00 +18°C° 0 mm 3 mps 739 mmHg 58%
    21:00 +18°C° 0 mm 3 mps 739 mmHg 62%
    22:00 +17°C° 0 mm 3 mps 739 mmHg 66%
    23:00 +17°C° 0 mm 3 mps 739 mmHg 70%

    25 September, Monday

    Time Temperature Precipitation Wind Pressure Humidity
    00:00 +17°C° 0 mm 2 mps 739 mmHg 72%
    01:00 +17°C° 0 mm 2 mps 739 mmHg 74%
    02:00 +17°C° 0 mm 2 mps 739 mmHg 76%
    03:00 +16°C° 0 mm 3 mps 739 mmHg 77%
    04:00 +16°C° 0 mm 3 mps 739 mmHg 79%
    05:00 +16°C° 0 mm 3 mps 739 mmHg 80%
    06:00 +17°C° 0 mm 4 mps 739 mmHg 76%
    07:00 +19°C° 0 mm 5 mps 739 mmHg 71%
    08:00 +20°C° 0 mm 6 mps 739 mmHg 67%
    09:00 +21°C° 0 mm 6 mps 739 mmHg 61%
    10:00 +22°C° 0 mm 6 mps 739 mmHg 56%
    11:00 +23°C° 0 mm 7 mps 739 mmHg 50%
    12:00 +24°C° 0 mm 7 mps 739 mmHg 50%
    13:00 +24°C° 0 mm 7 mps 739 mmHg 49%
    14:00 +24°C° 0 mm 7 mps 738 mmHg 49%
    15:00 +23°C° 0 mm 7 mps 738 mmHg 52%
    16:00 +22°C° 0 mm 7 mps 738 mmHg 56%
    17:00 +22°C° 0 mm 7 mps 738 mmHg 60%
    18:00 +21°C° 0 mm 6 mps 738 mmHg 66%
    19:00 +19°C° 0 mm 6 mps 738 mmHg 73%
    20:00 +17°C° 0 mm 5 mps 738 mmHg 80%
    21:00 +17°C° 0 mm 5 mps 738 mmHg 82%
    22:00 +18°C° 0 mm 4 mps 738 mmHg 85%
    23:00 +17°C° 0 mm 4 mps 738 mmHg 87%

    26 September, Tuesday

    Time Temperature Precipitation Wind Pressure Humidity
    00:00 +17°C° 0 mm 4 mps 738 mmHg 88%
    01:00 +17°C° 0 mm 4 mps 738 mmHg 89%
    02:00 +15°C° 0 mm 4 mps 737 mmHg 90%
    03:00 +15°C° 0 mm 4 mps 737 mmHg 90%
    04:00 +14°C° 0 mm 4 mps 737 mmHg 89%
    05:00 +14°C° 0 mm 4 mps 737 mmHg 89%
    06:00 +15°C° 0 mm 4 mps 737 mmHg 84%
    07:00 +17°C° 0 mm 4 mps 737 mmHg 79%
    08:00 +17°C° 0 mm 4 mps 737 mmHg 73%
    09:00 +20°C° 0 mm 4 mps 737 mmHg 65%
    10:00 +22°C° 0 mm 4 mps 738 mmHg 58%
    11:00 +25°C° 0 mm 5 mps 738 mmHg 50%
    12:00 +25°C° 0 mm 5 mps 738 mmHg 47%
    13:00 +26°C° 0 mm 5 mps 737 mmHg 44%
    14:00 +27°C° 0 mm 5 mps 737 mmHg 41%
    15:00 +26°C° 0.3 mm 5 mps 737 mmHg 48%
    16:00 +23°C° 0.3 mm 5 mps 737 mmHg 56%
    17:00 +22°C° 0.3 mm 6 mps 737 mmHg 63%
    18:00 +21°C° 0.2 mm 6 mps 737 mmHg 69%
    19:00 +20°C° 0.2 mm 6 mps 738 mmHg 76%
    20:00 +17°C° 0.2 mm 6 mps 738 mmHg 82%
    21:00 +17°C° 0 mm 6 mps 738 mmHg 82%
    22:00 +16°C° 0 mm 5 mps 738 mmHg 83%
    23:00 +16°C° 0 mm 5 mps 738 mmHg 83%

    27 September, Wednesday

    Time Temperature Precipitation Wind Pressure Humidity
    00:00 +16°C° 0.1 mm 5 mps 738 mmHg 83%
    01:00 +15°C° 0.1 mm 5 mps 738 mmHg 83%
    02:00 +15°C° 0.1 mm 5 mps 738 mmHg 83%
    03:00 +14°C° 0 mm 5 mps 738 mmHg 82%
    04:00 +14°C° 0 mm 5 mps 738 mmHg 82%
    05:00 +13°C° 0 mm 5 mps 739 mmHg 82%
    06:00 +14°C° 0 mm 5 mps 739 mmHg 75%
    07:00 +14°C° 0 mm 5 mps 739 mmHg 69%
    08:00 +15°C° 0 mm 5 mps 739 mmHg 62%
    09:00 +17°C° 0 mm 5 mps 740 mmHg 57%
    10:00 +19°C° 0 mm 5 mps 740 mmHg 52%
    11:00 +21°C° 0 mm 5 mps 740 mmHg 46%
    12:00 +22°C° 0 mm 5 mps 740 mmHg 45%
    13:00 +22°C° 0 mm 6 mps 740 mmHg 44%
    14:00 +23°C° 0 mm 6 mps 740 mmHg 43%
    15:00 +22°C° 0 mm 6 mps 740 mmHg 48%
    16:00 +21°C° 0 mm 6 mps 740 mmHg 53%
    17:00 +20°C° 0 mm 6 mps 740 mmHg 57%
    18:00 +19°C° 0 mm 6 mps 740 mmHg 63%
    19:00 +17°C° 0 mm 6 mps 740 mmHg 69%
    20:00 +15°C° 0 mm 5 mps 740 mmHg 75%
    21:00 +15°C° 0 mm 5 mps 740 mmHg 77%
    22:00 +15°C° 0 mm 5 mps 740 mmHg 79%
    23:00 +14°C° 0 mm 5 mps 740 mmHg 81%
    Show more